FW0304 Weather Reports


Display with metric or nautical units.
time (UTC)temp
F
wind
direction
speed
MPH
gust
MPH
rain 1hr
in
rain 24hr
in
rain mn
in
humidity
%
barometer
mb
20260904061508 75 69 0.0 0.0 0.00 0.00 0.00 91 1015.0
20260904060012 76 69 0.0 0.0 0.00 0.00 0.00 91 1015.1
20260904054526 76 69 0.0 0.0 0.00 0.00 0.00 91 1015.1
20260904053005 76 69 0.0 0.0 0.00 0.00 0.00 90 1015.3
20260904051507 77 69 0.0 0.0 0.00 0.00 0.00 89 1015.2
20260904050011 77 69 0.0 0.0 0.00 0.00 0.00 89 1015.3
20260904044513 77 69 0.0 0.0 0.00 0.00 0.00 89 1015.1
20260904043012 77 69 0.0 0.0 0.00 0.00 0.00 89 1015.1
20260904041507 77 69 0.0 0.0 0.00 0.00 0.00 89 1015.2
20260904040011 78 69 0.0 0.0 0.00 0.00 0.00 88 1015.2
20260904034514 78 69 0.0 0.0 0.00 0.00 0.00 88 1015.2
20260904033026 78 69 0.0 0.0 0.00 0.00 0.00 89 1015.2
20260904031514 77 69 0.0 0.0 0.00 0.00 0.00 89 1015.3
20260904030006 78 69 0.0 1.0 0.00 0.00 0.00 89 1015.4
20260904024512 78 69 0.0 0.0 0.00 0.00 0.00 88 1015.6
20260904023016 78 69 0.0 0.0 0.00 0.00 0.00 87 1015.4
20260904021520 78 69 0.0 0.0 0.00 0.00 0.00 87 1015.6
20260904020018 78 69 0.0 0.0 0.00 0.00 0.00 87 1015.3
20260904014513 78 69 0.0 0.0 0.00 0.00 0.00 86 1015.2
20260904013018 79 69 0.0 0.0 0.00 0.00 0.00 86 1015.0
20260904011516 79 69 0.0 0.0 0.00 0.00 0.00 85 1014.9
20260904010019 79 69 0.0 0.0 0.00 0.00 0.00 84 1014.6
20260904004508 80 69 0.0 0.0 0.00 0.00 0.00 83 1014.4
20260904003013 80 69 0.0 0.0 0.00 0.00 0.00 82 1014.5
20260904001521 81 69 0.0 0.0 0.00 0.00 0.00 81 1014.4
20260904000023 82 69 0.0 0.0 0.00 0.00 0.00 78 1014.5
20260903234523 82 69 0.0 0.0 0.00 0.00 0.00 77 1014.4
20260903233024 82 69 0.0 0.0 0.00 0.00 0.00 77 1014.7
20260903231530 82 69 0.0 0.0 0.00 0.00 0.00 75 1014.7
20260903230024 82 45 0.0 2.0 0.00 0.00 0.00 75 1015.2
20260903224530 83 140 0.0 1.0 0.00 0.00 0.00 76 1015.5
20260903223024 85 121 0.0 5.0 0.00 0.00 0.00 71 1015.8
20260903221519 90 136 2.0 8.0 0.00 0.00 0.00 59 1015.0
20260903220034 96 332 2.0 10.0 0.00 0.00 0.00 52 1014.1
20260903214523 97 124 0.0 3.0 0.00 0.00 0.00 48 1013.6
20260903213622 96 107 1.0 3.0 0.00 0.00 0.00 47 1013.6
20260903211516 96 184 1.0 2.0 0.00 0.00 0.00 48 1013.6
20260903210021 96 335 0.0 2.0 0.00 0.00 0.00 49 1013.7
20260903204528 95 138 1.0 4.0 0.00 0.00 0.00 52 1014.0
20260903203006 96 111 1.0 3.0 0.00 0.00 0.00 49 1013.9
20260903201514 97 143 0.0 3.0 0.00 0.00 0.00 50 1014.1
20260903200017 96 360 1.0 3.0 0.00 0.00 0.00 49 1014.7
20260903194534 95 117 0.0 4.0 0.00 0.00 0.00 52 1015.0
20260903193029 95 44 1.0 2.0 0.00 0.00 0.00 51 1015.1
20260903191526 91 107 0.0 2.0 0.00 0.00 0.00 60 1015.4
20260903190016 88 126 0.0 2.0 0.00 0.00 0.00 71 1015.7
20260903184524 87 165 0.0 5.0 0.00 0.00 0.00 71 1015.8
20260903183027 95 148 1.0 4.0 0.00 0.00 0.00 56 1015.9
20260903181529 96 126 0.0 4.0 0.00 0.00 0.00 49 1015.8
20260903180021 97 239 0.0 4.0 0.00 0.00 0.00 48 1015.9
20260903174521 96 175 1.0 4.0 0.00 0.00 0.00 50 1016.0
20260903173027 96 153 1.0 4.0 0.00 0.00 0.00 48 1016.2
20260903171532 96 125 0.0 6.0 0.00 0.00 0.00 49 1016.5
20260903170010 96 138 1.0 7.0 0.00 0.00 0.00 50 1016.7
20260903164517 95 205 0.0 5.0 0.00 0.00 0.00 52 1016.9
20260903163035 96 115 0.0 3.0 0.00 0.00 0.00 51 1017.0
20260903161529 95 158 1.0 2.0 0.00 0.00 0.00 53 1017.2
20260903160031 94 11 1.0 3.0 0.00 0.00 0.00 57 1017.2
20260903154516 93 61 0.0 3.0 0.00 0.00 0.00 60 1017.2
20260903153020 93 159 0.0 2.0 0.00 0.00 0.00 61 1017.3
20260903151526 91 187 0.0 2.0 0.00 0.00 0.00 63 1017.2
20260903150042 91 122 0.0 2.0 0.00 0.00 0.00 63 1017.3
20260903144533 89 113 0.0 2.0 0.00 0.00 0.00 67 1017.3
20260903143030 88 123 0.0 2.0 0.00 0.00 0.00 68 1017.3
20260903141527 86 148 1.0 2.0 0.00 0.00 0.00 71 1017.3
20260903140032 85 38 0.0 2.0 0.00 0.00 0.00 73 1017.5
20260903134535 83 163 0.0 2.0 0.00 0.00 0.00 76 1017.7
20260903133019 82 9 0.0 2.0 0.00 0.00 0.00 81 1017.7
20260903131524 80 148 0.0 2.0 0.00 0.00 0.00 82 1017.8
20260903130028 78 124 0.0 2.0 0.00 0.00 0.00 86 1017.8
20260903124531 77 102 0.0 0.0 0.00 0.00 0.00 90 1017.7
20260903123034 76 102 0.0 0.0 0.00 0.00 0.00 91 1017.7
20260903121520 75 102 0.0 0.0 0.00 0.00 0.00 92 1017.6
20260903120030 74 102 0.0 0.0 0.00 0.00 0.00 92 1017.4
20260903114533 74 102 0.0 0.0 0.00 0.00 0.00 93 1017.2
20260903113011 74 102 0.0 0.0 0.00 0.00 0.00 92 1017.0
20260903111520 74 102 0.0 0.0 0.00 0.00 0.00 93 1016.8
20260903110023 74 102 0.0 0.0 0.00 0.00 0.00 92 1016.5
20260903104507 75 102 0.0 0.0 0.00 0.00 0.00 92 1016.5
20260903103009 75 102 0.0 0.0 0.00 0.00 0.00 92 1016.4
20260903101536 75 102 0.0 0.0 0.00 0.00 0.00 92 1016.3
20260903100029 75 102 0.0 0.0 0.00 0.00 0.00 92 1016.2
20260903094526 75 102 0.0 0.0 0.00 0.00 0.00 91 1016.2
20260903093008 75 102 0.0 0.0 0.00 0.00 0.00 92 1016.3
20260903091513 75 102 0.0 0.0 0.00 0.00 0.00 91 1016.3
20260903090016 76 102 0.0 0.0 0.00 0.00 0.00 91 1016.5
20260903084532 76 102 0.0 0.0 0.00 0.00 0.00 90 1016.4
20260903083017 76 102 0.0 0.0 0.00 0.00 0.00 90 1016.5
20260903081510 76 102 0.0 0.0 0.00 0.00 0.00 90 1016.3
20260903080036 76 102 0.0 0.0 0.00 0.00 0.00 90 1016.3
20260903074524 77 102 0.0 0.0 0.00 0.00 0.00 89 1016.1
20260903073033 77 102 0.0 0.0 0.00 0.00 0.00 90 1016.2
20260903071508 77 102 0.0 0.0 0.00 0.00 0.00 90 1016.2
20260903070018 77 102 0.0 0.0 0.00 0.00 0.00 90 1016.2
20260903064523 77 102 0.0 0.0 0.00 0.00 0.00 89 1016.2
20260903063026 77 102 0.0 0.0 0.00 0.00 0.00 89 1016.4